STARLINK-11138, 59949

Orbit data source: Space-Track

STARLINK-11138, 59949 is a payload satellite owned by SpaceX/Seattle (US) in LEO that was launched on Wed, 05 Jun 2024 UTC via an FALCON 9 launch vehicle from the Air Force Eastern Test Range (AFETR). Payload-class satellites include a variety of spacecraft equipped with specific instruments for various scientific and technological missions. These include communications satellites like Starlink; space stations such as the ISS; scientific satellites like the Hubble; Earth observation satellites from companies like Planet Labs, Umbra, and HawkEye 360; GPS; miniature CubeSats for education and research; and military/defense satellites.

Loading next visibility...
Identifier
59949, 2024-107E
Orbit
LEO
Last TLE update
14 hours ago
Origin
Manufacturer
SpaceX/Seattle
Mission
Operational spacecraft
Bus & Motor
STARLINK V2M, Unknown motor
Mass
730 kg wet, ~700 kg dry
Launch date (UTC)
2024-06-05 (11 months ago)
Launch vehicle
FALCON 9
Launch site
Air Force Eastern Test Range (AFETR)
Object type
Payload
Rocket body
Debris
Shape & HBR
Unknown
Radar Cross Section
Large (>1 m²)

Expand to show TLE details & history

TLE from 14 hours ago
0 STARLINK-11138
1 59949U 24107E   25128.82370744  .00002163  00000-0  22687-4 0  9994
2 59949  53.1592 314.1113 0000626  49.0432 311.0640 15.69726904 54321
Epoch: 2025-05-08T19:46Z
Definitive object data (Epoch: 2025-05-08T19:46:08.322Z)
Latitude
-0.00004°
Longitude
150.68793°
Altitude
360.316 km
Speed
7.694 km/s
True Right ascension
20h 56m 26s
True Declination
0° 00' 00"
Sunlit
Object was in daylight at TLE epoch
Visualization TLE readout
Latitude
3.78389°
Longitude
150.68241°
Altitude
359.88 km
Speed
7.695 km/s
Apparent Right ascension
00h 02m 30s
Apparent Declination
-35° 36' 21"
Sunlit
Object is in daylight
Visualization observer readout
Local Sidereal Time
17:41:49
Azimuth
116.262° SE
Elevation
-25.454°
Doppler factor
1
Orbital elements
Apogee altitude
360.361 km
Perigee altitude
359.517 km
Semi-major axis
6,738.076 km
Eccentricity
0.0000626
Inclination
53.1592°
RAAN
314.1113°
Arg. of periapsis
49.0432°
True anomaly
311.05859°
Mean anomaly
311.064°
Eccentric anomaly
311.0613°
Mean motion
3.92409 °/min
BSTAR
0.000022687
Orbital period
91.74 mins
Loading maneuver chart data...
Loading SW <> Apogee altitude chart data...
Loading historical data...
Loading historical data...
Loading historical data...
Loading historical data...
Loading historical data...
Loading historical data...
Loading historical data...

STARLINK-11138 Visibility forecast

Observer location: undefined°, undefined°

Span
Click to sort rows by Start time (UTC) header in descending order
Start Az.
Max El. time (UTC)
Max El. Az.
Max El.
End time (UTC)
End Az.
4 mins2025-05-09 14:16:28.713Z178.433° S2025-05-09 14:18:28.713Z122.004° SE21.683°2025-05-09 14:20:28.713Z77.432° E
4 mins2025-05-09 22:16:28.713Z283.16° WNW2025-05-09 22:18:28.713Z202.109° SSW30.212°2025-05-09 22:20:28.713Z157.579° S
|